SCP
0 0 0 0 0 0 0 0 0 0 0 0 0 0 0 0 0 0 0 0 0 0 0 0 0 0 0 0 0 0 0 0 0 0 0 0 0 0 0 0 0 0 0
0 0 0 0 0 0 0 0 0 0 0 0 0 0 0 0 0 0 0 0 0 0 0 0 0 0 0 0 0 0 0 0 0 0 0 0 0 0 0 0 0 0 0
0 0 0 0 0 0 0 0 0 0 0 0 0 0 0 0 0 0 0 0 0 0 0 0 0 0 0 0 0 0 0 0 0 0 0 0 0 0 0 0 0 0 0
0 0 0 0 0 0 0 0 0 0 0 0 0 0 0 0 0 0 0 0 0 0 0 0 0 0 0 0 0 0 0 0 0 0 0 0 0 0 0 0 0 0 0
0 0 0 0 0 0 0 0 0 0 0 0 0 0 0 0 0 0 0 0 0 0 0 0 0 0 0 0 0 0 0 0 0 0 0 0 0 0 0 0 0 0 0
0 0 0 0 0 0 0 0 0 0 0 0 0 0 0 0 0 0 0 0 0 0 0 0 0 0 0 0 0 0 0 0 0 0 0 0 0 0 0 0 0 0 0
0 0 0 0 0 0 0 0 0 0 0 0 0 0 0 0 0 0 0 0 0 0 0 0 0 0 0 0 0 0 0 0 0 0 0 0 0 0 0 0 0 0 0
0 0 0 0 0 0 0 0 0 0 0 0 0 0 0 0 0 0 0 0 0 0 0 0 0 0 0 0 0 0 0 0 0 0 0 0 0 0 0 0 0 0 0
0 0 0 0 0 0 0 0 0 0 0 0 0 0 0 0 0 0 0 0 0 0 0 0 0 0 0 0 0 0 0 0 0 0 0 0 0 0 0 0 0 0 0
0 0 0 0 0 0 0 0 0 0 0 0 0 0 0 0 0 0 0 0 0 0 0 0 0 0 0 0 0 0 0 0 0 0 0 0 0 0 0 0 0 0 0
0 0 0 0 0 0 0 0 0 0 0 0 0 0 0 0 0 0 0 0 0 0 0 0 0 0 0 0 0 0 0 0 0 0 0 0 0 0 0 0 0 0 0
0 0 0 0 0 0 0 0 0 0 0 0 0 0 0 0 0 0 0 0 0 0 0 0 0 0 0 0 0 0 0 0 0 0 0 0 0 0 0 0 0 0 0
0 0 0 0 0 0 0 0 0 0 0 0 0 0 0 0 0 0 0 0 0 0 0 0 0 0 0 0 0 0 0 0 0 0 0 0 0 0 0 0 0 0 0
0 0 0 0 0 0 0 0 0 0 0 0 0 0 0 0 0 0 0 0 0 0 0 0 0 0 0 0 0 0 0 0 0 0 0 0 0 0 0 0 0 0 0
0 0 0 0 0 0 0 0 0 0 0 0 0 0 0 0 0 0 0 0 0 0 0 0 0 0 0 0 0 0 0 0 0 0 0 0 0 0 0 0 0 0 0
0 0 0 0 0 0 0 0 0 0 0 0 0 0 0 0 0 0 0 0 0 0 0 0 0 0 0 0 0 0 0 0 0 0 0 0 0 0 0 0 0 0 0
0 0 0 0 0 0 0 0 0 0 0 0 0 0 0 0 0 0 0 0 0 0 0 0 0 0 0 0 0 0 0 0 0 0 0 0 0 0 0 0 0 0 0
0 0 0 0 0 0 0 0 0 0 0 0 0 0 0 0 0 0 0 0 0 0 0 0 0 0 0 0 0 0 0 0 0 0 0 0 0 0 0 0 0 0 0
0 0 0 0 0 0 0 0 0 0 0 0 0 0 0 0 0 0 0 0 0 0 0 0 0 0 0 0 0 0 0 0 0 0 0 0 0 0 0 0 0 0 0
0 0 0 0 0 0 0 0 0 0 0 0 0 0 0 0 0 0 0 0 0 0 0 0 0 0 0 0 0 0 0 0 0 0 0 0 0 0 0 0 0 0 0
0 0 0 0 0 0 0 0 0 0 0 0 0 0 0 0 0 0 0 0 0 0 0 0 0 0 0 0 0 0 0 0 0 0 0 0 0 0 0 0 0 0 0
0 0 0 0 0 0 0 0 0 0 0 0 0 0 0 0 0 0 0 0 0 0 0 0 0 0 0 0 0 0 0 0 0 0 0 0 0 0 0 0 0 0 0
0 0 0 0 0 0 0 0 0 0 0 0 0 0 0 0 0 0 0 0 0 0 0 0 0 0 0 0 0 0 0 0 0 0 0 0 0 0 0 0 0 0 0
0 0 0 0 0 0 0 0 0 0 0 0 0 0 0 0 0 0 0 0 0 0 0 0 0 0 0 0 0 0 0 0 0 0 0 0 0 0 0 0 0 0 0
0 0 0 0 0 0 0 0 0 0 0 0 0 0 0 0 0 0 0 0 0 0 0 0 0 0 0 0 0 0 0 0 0 0 0 0 0 0 0 0 0 0 0
0 0 0 0 0 0 0 0 0 0 0 0 0 0 0 0 0 0 0 0 0 0 0 0 0 0 0 0 0 0 0 0 0 0 -0 0 0 0 0 0 0 0 0
Wind_Speed
3 2 2 3 3 2 3 3 3 3 3 4 4 5 4 4 4 4 4 9 10 11 12 12 12 12 12 11 10 9 8 7 6 5 4 3 2 1 1 2 4 4 5
3 3 3 3 3 3 3 3 3 3 3 3 3 4 4 4 4 4 4 6 10 11 13 13 13 13 13 12 11 10 9 8 7 7 6 4 4 3 2 3 4 5 5
4 4 3 3 3 3 3 3 3 2 2 2 3 3 3 3 3 5 5 5 5 9 11 13 13 13 13 13 12 11 10 9 8 7 7 6 5 4 4 4 4 5 5
5 4 3 3 3 3 3 2 2 2 2 2 2 2 2 3 4 4 5 5 5 5 8 12 12 13 13 13 13 12 11 11 10 9 8 7 6 6 5 5 5 5 6
5 4 4 4 4 3 3 3 2 2 2 2 2 2 2 2 3 3 4 5 6 6 6 9 12 12 13 13 13 13 12 12 11 10 9 8 7 7 6 6 5 5 6
5 4 4 4 4 3 3 3 3 2 2 2 2 2 2 3 3 4 5 4 5 6 6 7 7 8 12 13 13 13 13 13 12 11 10 9 8 8 7 6 6 6 6
5 4 4 4 5 4 4 4 3 3 2 2 1 1 2 3 4 4 4 4 5 6 6 7 6 5 5 11 13 13 13 13 12 12 10 10 9 8 7 7 6 6 7
5 5 5 5 5 4 5 5 4 3 3 3 2 1 1 2 3 4 3 4 5 4 6 7 7 7 5 5 8 12 12 13 12 12 11 10 9 9 8 7 7 7 7
5 5 5 5 5 5 5 5 5 4 4 3 3 3 3 3 2 2 4 4 4 4 5 5 7 7 7 5 5 9 12 12 13 12 11 11 10 9 8 8 7 7 7
5 5 6 5 5 5 6 6 5 4 5 4 4 3 3 2 2 2 2 3 5 6 6 6 6 7 7 6 7 9 12 12 13 13 12 11 10 10 9 8 7 7 7
4 4 5 5 5 5 6 6 5 5 4 5 4 3 3 2 3 3 4 3 3 4 5 5 5 5 6 6 6 8 12 12 13 13 12 11 10 10 9 8 7 7 6
3 3 3 4 4 4 5 6 6 6 5 5 4 4 4 3 4 3 4 4 4 4 4 4 5 5 5 6 7 10 12 13 12 11 10 9 9 9 9 8 7 6 6
2 3 4 4 4 4 5 5 5 6 6 6 6 5 5 5 4 4 3 4 3 3 3 3 4 5 5 5 6 10 11 13 12 11 9 8 7 7 8 7 7 6 6
3 4 4 4 4 4 5 5 5 5 5 6 7 6 4 4 4 4 4 3 3 3 3 4 3 5 5 5 6 10 8 11 11 10 9 8 7 7 6 5 5 4 5
3 4 4 4 4 5 5 5 4 5 5 5 6 6 5 4 4 4 4 4 4 4 5 4 3 4 4 4 7 6 6 10 11 10 9 8 8 7 6 5 4 4 3
3 4 4 4 4 4 5 5 4 5 5 5 4 5 5 4 4 4 4 4 4 4 5 3 3 3 3 3 7 6 6 9 11 10 10 9 8 7 6 5 4 4 3
3 4 4 3 3 4 4 4 4 4 5 5 4 5 6 5 5 4 4 4 4 3 4 3 2 2 3 4 3 4 5 6 6 10 10 9 8 8 7 6 5 4 3
3 3 3 3 3 4 4 4 4 4 4 5 5 5 6 5 6 5 4 5 4 4 4 5 3 2 3 4 5 5 4 4 5 8 10 9 9 8 7 6 5 4 3
2 2 2 3 3 4 4 3 4 4 4 4 4 5 5 5 6 4 4 4 4 4 3 4 3 2 2 2 3 3 3 3 3 5 7 8 9 8 8 7 5 4 3
1 2 2 2 3 3 3 3 3 3 3 3 4 4 5 5 6 5 4 4 3 3 3 3 3 2 2 2 2 2 2 2 3 3 4 4 6 8 8 7 6 5 4
1 0 1 1 2 2 2 2 2 3 3 3 3 4 5 5 5 5 4 4 4 4 3 3 3 2 2 2 3 2 3 2 1 2 2 3 3 3 4 6 5 5 4
1 1 1 2 2 2 3 4 4 2 3 3 3 3 4 4 4 6 6 6 7 6 6 5 4 4 4 3 3 3 2 2 2 2 2 2 2 2 2 2 4 5 4
1 1 2 2 2 2 3 4 4 3 2 2 3 3 3 2 2 2 4 5 7 9 9 6 6 6 5 5 4 4 3 3 2 2 3 1 1 2 2 3 5 4 4
1 1 1 1 1 2 3 4 4 3 2 2 3 3 3 3 2 2 3 3 3 4 6 5 5 5 4 4 5 4 3 2 1 1 2 2 1 1 1 2 5 4 3
1 2 1 1 1 2 3 4 4 1 1 2 3 3 3 3 3 3 2 2 2 2 2 4 4 4 5 5 5 4 4 3 1 1 1 2 1 1 1 1 3 4 3
2 2 2 1 2 2 3 4 4 1 1 2 2 2 3 4 4 3 3 3 3 2 2 2 2 2 2 3 5 4 5 4 2 2 2 2 2 2 1 0 1 2 2
Wind_Direction
203 198 199 190 193 186 179 194 205 200 198 197 201 208 209 200 190 179 173 178 183 192 198 199 196 196 195 190 187 187 188 187 187 189 190 195 199 215 283 308 315 321 326
200 201 206 195 192 182 193 200 208 205 199 195 205 204 204 205 197 179 172 179 185 191 201 205 203 204 202 198 194 191 192 195 197 200 202 208 216 230 257 282 299 309 316
200 204 199 194 192 185 197 207 212 206 198 200 208 210 207 209 206 188 180 180 186 196 203 207 209 209 206 204 201 198 198 200 205 206 209 215 220 231 252 267 286 298 305
201 202 193 194 192 185 185 201 198 196 205 205 209 213 211 211 219 206 190 185 186 192 204 211 212 212 210 209 208 206 204 204 207 209 213 218 223 232 247 260 275 286 297
209 200 191 194 180 182 185 201 198 190 200 216 215 211 211 212 224 220 207 197 191 187 191 204 209 213 214 213 213 212 210 208 209 212 213 219 226 234 244 256 267 279 289
211 199 192 193 177 181 188 191 196 198 195 205 238 240 233 224 222 223 218 205 194 192 193 197 202 213 215 217 218 217 216 212 212 214 216 221 228 236 242 250 261 274 285
208 198 198 190 184 187 192 193 191 191 197 184 188 273 275 241 229 224 218 207 201 198 195 198 198 199 210 215 218 220 220 217 216 216 217 220 227 235 240 247 258 271 283
211 208 196 195 189 186 192 194 187 189 205 182 174 175 259 273 249 233 222 213 207 198 199 202 200 199 198 197 210 214 220 222 221 219 218 221 228 234 239 246 256 268 277
209 208 203 200 193 190 193 196 196 195 198 206 193 185 196 224 265 250 226 220 211 208 205 205 207 204 199 194 195 207 211 219 222 221 220 223 227 231 236 244 255 266 276
214 209 204 203 199 196 194 200 204 195 192 206 217 221 219 205 207 254 249 226 218 215 210 209 210 208 201 194 192 197 203 211 221 223 222 224 228 233 235 242 253 263 274
219 212 206 199 206 205 199 202 204 202 199 207 215 221 229 239 225 218 247 240 239 230 218 209 206 207 202 195 191 195 199 206 218 222 222 224 228 231 235 241 249 259 272
218 211 209 207 210 215 208 203 206 207 207 212 221 221 214 214 222 224 232 229 237 243 233 220 210 207 204 199 197 195 199 203 212 218 220 224 228 229 233 241 248 258 271
221 210 209 207 208 216 216 211 208 210 207 209 219 227 228 226 222 227 226 233 247 256 241 234 217 206 207 197 196 195 202 203 207 210 209 212 220 227 232 239 249 258 271
223 207 200 206 209 214 221 213 213 216 212 211 222 225 232 236 229 224 219 220 245 260 245 240 227 211 205 196 196 191 203 203 205 205 203 202 207 215 224 229 236 252 270
225 208 200 202 209 215 216 212 218 222 216 218 218 221 230 236 233 231 218 208 215 242 250 236 228 219 202 190 188 192 196 202 203 202 199 198 199 204 205 204 222 239 261
217 202 203 203 213 222 218 216 218 221 222 225 221 220 230 233 232 228 217 218 216 221 242 234 229 211 199 201 190 189 197 200 202 199 198 195 195 193 190 192 206 219 245
207 206 205 209 216 219 217 218 223 222 223 226 224 225 232 233 234 230 215 213 218 212 234 253 245 213 198 200 196 191 191 194 199 200 200 197 192 188 186 189 198 212 237
215 210 201 214 226 228 222 215 223 233 234 232 228 228 234 235 239 231 210 210 214 215 216 237 245 224 215 201 199 197 191 190 194 198 200 196 190 186 187 189 196 205 226
223 223 216 224 231 230 227 217 219 233 240 240 236 232 236 239 240 227 210 212 214 220 216 217 235 224 227 196 188 196 185 181 191 192 195 195 189 190 190 190 192 195 214
214 224 228 232 229 232 236 235 231 235 240 245 247 243 239 242 230 218 213 212 211 210 205 208 221 210 213 196 167 186 197 191 197 178 187 190 192 193 193 192 191 192 194
289 228 229 247 241 241 239 244 242 245 241 250 257 257 256 246 232 223 219 211 205 205 201 209 215 204 202 185 198 198 200 188 200 170 169 186 183 185 190 191 190 190 190
310 273 241 244 248 261 269 277 276 265 247 246 254 266 266 260 244 233 230 227 216 211 208 209 216 209 217 204 197 191 180 168 220 186 169 199 166 179 186 185 194 194 193
301 288 265 245 244 241 267 282 288 283 256 252 255 266 273 261 259 237 235 237 231 226 222 214 210 212 209 204 188 195 198 191 214 178 142 186 174 190 183 195 200 198 198
303 298 297 276 271 257 274 287 301 303 292 286 271 260 256 253 241 233 232 235 238 233 223 217 212 212 204 193 191 191 182 147 95 126 125 163 183 185 173 191 198 196 201
315 307 293 282 276 262 274 288 298 302 300 299 286 275 259 252 248 235 217 225 238 239 202 186 185 188 189 186 171 145 147 147 173 183 130 136 153 118 144 196 202 203 201
310 307 304 288 262 245 269 288 300 286 293 294 290 280 269 260 267 238 216 202 211 222 194 173 165 151 170 166 162 172 172 170 162 184 183 144 146 123 123 271 204 198 196